| time (UTC) | temp F | wind direction | speed knots | gust knots | rain 1hr in | rain 24hr in | rain mn in | humidity % | barometer mb |
| 20260507085636 | 59 | 312 | 1.7 | 4.3 | 0.00 | 0.00 | 0.00 | 51 | 1017.3 |
| 20260507085136 | 60 | 0.0 | 1.7 | 0.00 | 0.00 | 0.00 | 51 | 1017.2 | |
| 20260507084636 | 60 | 0.0 | 1.7 | 0.00 | 0.00 | 0.00 | 52 | 1017.2 | |
| 20260507084136 | 58 | 6 | 1.7 | 5.2 | 0.00 | 0.00 | 0.00 | 53 | 1017.2 |
| 20260507083636 | 59 | 289 | 1.7 | 2.6 | 0.00 | 0.00 | 0.00 | 54 | 1017.2 |
| 20260507083136 | 59 | 268 | 0.9 | 1.7 | 0.00 | 0.00 | 0.00 | 54 | 1017.2 |
| 20260507082636 | 58 | 289 | 1.7 | 3.5 | 0.00 | 0.00 | 0.00 | 56 | 1017.3 |
| 20260507082136 | 57 | 284 | 0.9 | 3.5 | 0.00 | 0.00 | 0.00 | 56 | 1017.3 |
| 20260507081636 | 59 | 323 | 3.5 | 4.3 | 0.00 | 0.00 | 0.00 | 53 | 1017.3 |
| 20260507081137 | 58 | 308 | 0.0 | 4.3 | 0.00 | 0.00 | 0.00 | 56 | 1017.3 |
| 20260507080637 | 57 | 318 | 2.6 | 4.3 | 0.00 | 0.00 | 0.00 | 55 | 1017.3 |
| 20260507080136 | 60 | 260 | 1.7 | 1.7 | 0.00 | 0.00 | 0.00 | 53 | 1017.2 |
| 20260507075636 | 57 | 2 | 1.7 | 3.5 | 0.00 | 0.00 | 0.00 | 57 | 1017.2 |
| 20260507075136 | 56 | 185 | 0.9 | 3.5 | 0.00 | 0.00 | 0.00 | 59 | 1017.2 |
| 20260507074637 | 57 | 57 | 0.0 | 2.6 | 0.00 | 0.00 | 0.00 | 59 | 1017.2 |
| 20260507074146 | 57 | 309 | 3.5 | 3.5 | 0.00 | 0.00 | 0.00 | 59 | 1017.1 |
| 20260507073536 | 57 | 0.0 | 2.6 | 0.00 | 0.00 | 0.00 | 61 | 1017.0 | |
| 20260507073037 | 55 | 289 | 0.9 | 2.6 | 0.00 | 0.00 | 0.00 | 64 | 1017.1 |
| 20260507072536 | 55 | 305 | 1.7 | 4.3 | 0.00 | 0.00 | 0.00 | 66 | 1017.0 |
| 20260507072037 | 54 | 310 | 3.5 | 6.1 | 0.00 | 0.00 | 0.00 | 66 | 1017.1 |
| 20260507071537 | 55 | 22 | 0.9 | 3.5 | 0.00 | 0.00 | 0.00 | 66 | 1017.0 |
| 20260507071037 | 55 | 295 | 2.6 | 3.5 | 0.00 | 0.00 | 0.00 | 64 | 1017.0 |
| 20260507070537 | 54 | 0.0 | 2.6 | 0.00 | 0.00 | 0.00 | 67 | 1017.0 | |
| 20260507070036 | 55 | 0.0 | 1.7 | 0.00 | 0.00 | 0.00 | 66 | 1017.0 | |
| 20260507065536 | 54 | 0.0 | 3.5 | 0.00 | 0.00 | 0.00 | 68 | 1017.0 | |
| 20260507065007 | 54 | 271 | 1.7 | 5.2 | 0.00 | 0.00 | 0.00 | 67 | 1016.9 |
| 20260507064547 | 53 | 299 | 3.5 | 3.5 | 0.00 | 0.00 | 0.00 | 70 | 1017.0 |
| 20260507063837 | 54 | 103 | 0.9 | 2.6 | 0.00 | 0.00 | 0.00 | 68 | 1016.9 |
| 20260507063337 | 53 | 0.0 | 1.7 | 0.00 | 0.00 | 0.00 | 70 | 1016.9 | |
| 20260507062837 | 52 | 315 | 2.6 | 4.3 | 0.00 | 0.00 | 0.00 | 72 | 1016.9 |
| 20260507062337 | 53 | 0.0 | 4.3 | 0.00 | 0.00 | 0.00 | 71 | 1016.9 | |
| 20260507061837 | 52 | 209 | 0.9 | 1.7 | 0.00 | 0.00 | 0.00 | 72 | 1016.9 |
| 20260507061356 | 52 | 311 | 3.5 | 4.3 | 0.00 | 0.00 | 0.00 | 73 | 1016.9 |
| 20260507060836 | 52 | 329 | 1.7 | 3.5 | 0.00 | 0.00 | 0.00 | 73 | 1016.8 |
| 20260507060337 | 51 | 273 | 0.9 | 1.7 | 0.00 | 0.00 | 0.00 | 76 | 1016.8 |
| 20260507055837 | 51 | 278 | 0.9 | 1.7 | 0.00 | 0.00 | 0.00 | 76 | 1016.8 |
| 20260507055307 | 51 | 294 | 2.6 | 2.6 | 0.00 | 0.00 | 0.00 | 75 | 1016.8 |
| 20260507054707 | 51 | 0.0 | 0.9 | 0.00 | 0.00 | 0.00 | 79 | 1016.7 | |
| 20260507054137 | 50 | 0.0 | 0.0 | 0.00 | 0.00 | 0.00 | 80 | 1016.6 | |
| 20260507053637 | 48 | 300 | 0.0 | 0.9 | 0.00 | 0.00 | 0.00 | 85 | 1016.6 |
| 20260507053137 | 47 | 0.0 | 0.0 | 0.00 | 0.00 | 0.00 | 87 | 1016.6 | |
| 20260507052718 | 46 | 0.0 | 0.0 | 0.00 | 0.00 | 0.00 | 89 | 1016.5 | |
| 20260507052137 | 46 | 0.0 | 0.0 | 0.00 | 0.00 | 0.00 | 90 | 1016.4 | |
| 20260507051637 | 45 | 0.0 | 0.0 | 0.00 | 0.00 | 0.00 | 91 | 1016.4 | |
| 20260507051137 | 45 | 0.0 | 0.0 | 0.00 | 0.00 | 0.00 | 91 | 1016.4 | |
| 20260507050637 | 45 | 0.0 | 0.0 | 0.00 | 0.00 | 0.00 | 92 | 1016.3 | |
| 20260507050137 | 44 | 0.0 | 0.0 | 0.00 | 0.00 | 0.00 | 92 | 1016.2 | |
| 20260507045607 | 44 | 0.0 | 0.0 | 0.00 | 0.00 | 0.00 | 92 | 1016.2 | |
| 20260507045006 | 44 | 0.0 | 0.0 | 0.00 | 0.00 | 0.00 | 92 | 1016.1 | |
| 20260507044437 | 44 | 0.0 | 0.0 | 0.00 | 0.00 | 0.00 | 92 | 1015.9 | |
| 20260507043937 | 44 | 0.0 | 0.0 | 0.00 | 0.00 | 0.00 | 92 | 1015.9 | |
| 20260507043436 | 44 | 0.0 | 0.0 | 0.00 | 0.00 | 0.00 | 92 | 1015.9 | |
| 20260507042936 | 43 | 0.0 | 0.0 | 0.00 | 0.00 | 0.00 | 91 | 1015.9 | |
| 20260507042437 | 43 | 0.0 | 0.0 | 0.00 | 0.00 | 0.00 | 91 | 1015.9 | |
| 20260507041937 | 43 | 0.0 | 0.0 | 0.00 | 0.00 | 0.00 | 91 | 1015.9 | |
| 20260507041437 | 43 | 0.0 | 0.0 | 0.00 | 0.00 | 0.00 | 91 | 1015.9 | |
| 20260507040957 | 44 | 0.0 | 0.0 | 0.00 | 0.00 | 0.00 | 91 | 1015.8 | |
| 20260507040437 | 44 | 0.0 | 0.0 | 0.00 | 0.00 | 0.00 | 90 | 1015.8 | |
| 20260507035927 | 44 | 0.0 | 0.0 | 0.00 | 0.00 | 0.00 | 90 | 1015.7 | |
| 20260507035307 | 44 | 0.0 | 0.0 | 0.00 | 0.00 | 0.00 | 90 | 1015.8 | |
| 20260507034837 | 44 | 0.0 | 0.0 | 0.00 | 0.00 | 0.00 | 90 | 1015.7 | |
| 20260507034337 | 44 | 309 | 0.9 | 1.7 | 0.00 | 0.00 | 0.00 | 90 | 1015.7 |
| 20260507033837 | 44 | 309 | 0.9 | 1.7 | 0.00 | 0.00 | 0.00 | 90 | 1015.7 |
| 20260507033356 | 44 | 0.0 | 0.9 | 0.00 | 0.00 | 0.00 | 89 | 1015.7 | |
| 20260507032837 | 44 | 0.0 | 0.0 | 0.00 | 0.00 | 0.00 | 89 | 1015.6 | |
| 20260507032337 | 45 | 0.0 | 0.0 | 0.00 | 0.00 | 0.00 | 89 | 1015.5 | |
| 20260507031838 | 45 | 0.0 | 0.0 | 0.00 | 0.00 | 0.00 | 89 | 1015.5 | |
| 20260507031356 | 45 | 0.0 | 0.0 | 0.00 | 0.00 | 0.00 | 88 | 1015.5 | |
| 20260507030837 | 45 | 304 | 0.0 | 1.7 | 0.00 | 0.00 | 0.00 | 88 | 1015.4 |
| 20260507030337 | 45 | 304 | 0.0 | 1.7 | 0.00 | 0.00 | 0.00 | 88 | 1015.4 |
| 20260507025857 | 45 | 304 | 1.7 | 1.7 | 0.00 | 0.00 | 0.00 | 88 | 1015.4 |
| 20260507025337 | 45 | 304 | 0.9 | 1.7 | 0.00 | 0.00 | 0.00 | 88 | 1015.5 |
| 20260507024857 | 45 | 304 | 0.0 | 0.9 | 0.00 | 0.00 | 0.00 | 88 | 1015.4 |
| 20260507024307 | 45 | 0.0 | 1.7 | 0.00 | 0.00 | 0.00 | 88 | 1015.4 | |
| 20260507023737 | 45 | 0.0 | 0.0 | 0.00 | 0.00 | 0.00 | 88 | 1015.3 | |
| 20260507023237 | 45 | 0.0 | 0.0 | 0.00 | 0.00 | 0.00 | 88 | 1015.3 | |
| 20260507022737 | 45 | 0.0 | 0.0 | 0.00 | 0.00 | 0.00 | 87 | 1015.3 | |
| 20260507022237 | 45 | 304 | 0.9 | 1.7 | 0.00 | 0.00 | 0.00 | 87 | 1015.3 |
| 20260507021738 | 46 | 304 | 1.7 | 1.7 | 0.00 | 0.00 | 0.00 | 87 | 1015.3 |
| 20260507021236 | 46 | 304 | 0.9 | 3.5 | 0.00 | 0.00 | 0.00 | 87 | 1015.3 |
| 20260507020737 | 46 | 313 | 0.9 | 1.7 | 0.00 | 0.00 | 0.00 | 87 | 1015.2 |
| 20260507020237 | 46 | 313 | 0.9 | 2.6 | 0.00 | 0.00 | 0.00 | 87 | 1015.2 |
| 20260507015737 | 46 | 313 | 0.9 | 2.6 | 0.00 | 0.00 | 0.00 | 87 | 1015.1 |
| 20260507015237 | 46 | 320 | 0.9 | 1.7 | 0.00 | 0.00 | 0.00 | 87 | 1015.1 |
| 20260507014737 | 46 | 310 | 1.7 | 2.6 | 0.00 | 0.00 | 0.00 | 87 | 1015.1 |
| 20260507014237 | 46 | 307 | 2.6 | 4.3 | 0.00 | 0.00 | 0.00 | 87 | 1015.0 |
| 20260507013737 | 46 | 321 | 2.6 | 2.6 | 0.00 | 0.00 | 0.00 | 87 | 1015.0 |
| 20260507013237 | 46 | 315 | 2.6 | 3.5 | 0.00 | 0.00 | 0.00 | 87 | 1015.0 |
| 20260507012707 | 46 | 324 | 0.9 | 3.5 | 0.00 | 0.00 | 0.00 | 87 | 1015.0 |
| 20260507012157 | 46 | 311 | 0.9 | 2.6 | 0.00 | 0.00 | 0.00 | 87 | 1015.0 |
| 20260507011637 | 47 | 301 | 1.7 | 3.5 | 0.00 | 0.00 | 0.00 | 87 | 1014.9 |
| 20260507011137 | 47 | 315 | 0.9 | 2.6 | 0.00 | 0.00 | 0.00 | 87 | 1014.9 |
| 20260507010637 | 47 | 298 | 1.7 | 2.6 | 0.00 | 0.00 | 0.00 | 87 | 1014.9 |
| 20260507010137 | 47 | 314 | 1.7 | 4.3 | 0.00 | 0.00 | 0.00 | 87 | 1014.9 |
| 20260507005657 | 47 | 307 | 1.7 | 3.5 | 0.00 | 0.00 | 0.00 | 87 | 1014.9 |
| 20260507005137 | 47 | 315 | 2.6 | 3.5 | 0.00 | 0.00 | 0.00 | 87 | 1014.9 |
| 20260507004637 | 47 | 310 | 1.7 | 3.5 | 0.00 | 0.00 | 0.00 | 87 | 1014.8 |
| 20260507004137 | 47 | 0.0 | 1.7 | 0.00 | 0.00 | 0.00 | 86 | 1014.9 | |
| 20260507003637 | 47 | 308 | 1.7 | 3.5 | 0.00 | 0.00 | 0.00 | 86 | 1014.9 |
| 20260507003137 | 47 | 325 | 2.6 | 2.6 | 0.00 | 0.00 | 0.00 | 86 | 1014.8 |
| 20260507002637 | 47 | 270 | 0.9 | 3.5 | 0.00 | 0.00 | 0.00 | 86 | 1014.8 |
| 20260507002137 | 47 | 283 | 0.9 | 2.6 | 0.00 | 0.00 | 0.00 | 86 | 1014.7 |
| 20260507001637 | 47 | 296 | 1.7 | 2.6 | 0.00 | 0.00 | 0.00 | 86 | 1014.6 |
| 20260507001137 | 48 | 312 | 1.7 | 3.5 | 0.00 | 0.00 | 0.00 | 85 | 1014.6 |
| 20260507000637 | 48 | 300 | 0.9 | 2.6 | 0.00 | 0.00 | 0.00 | 85 | 1014.7 |
| 20260507000137 | 48 | 326 | 1.7 | 5.2 | 0.00 | 0.00 | 0.00 | 85 | 1014.7 |
| 20260506235637 | 48 | 322 | 2.6 | 3.5 | 0.00 | 0.00 | 0.00 | 85 | 1014.7 |
| 20260506235138 | 48 | 298 | 1.7 | 3.5 | 0.00 | 0.00 | 0.00 | 85 | 1014.6 |
| 20260506234637 | 48 | 326 | 2.6 | 3.5 | 0.00 | 0.00 | 0.00 | 84 | 1014.6 |
| 20260506234137 | 48 | 296 | 0.9 | 2.6 | 0.00 | 0.00 | 0.00 | 84 | 1014.6 |
| 20260506233637 | 48 | 307 | 1.7 | 3.5 | 0.00 | 0.00 | 0.00 | 84 | 1014.6 |
| 20260506233137 | 48 | 295 | 1.7 | 2.6 | 0.00 | 0.00 | 0.00 | 83 | 1014.6 |
| 20260506232637 | 48 | 300 | 0.0 | 2.6 | 0.00 | 0.00 | 0.00 | 83 | 1014.4 |
| 20260506232137 | 49 | 320 | 1.7 | 2.6 | 0.00 | 0.00 | 0.00 | 83 | 1014.5 |
| 20260506231637 | 49 | 324 | 3.5 | 5.2 | 0.00 | 0.00 | 0.00 | 82 | 1014.5 |
| 20260506231137 | 49 | 328 | 2.6 | 3.5 | 0.00 | 0.00 | 0.00 | 82 | 1014.5 |
| 20260506230637 | 49 | 309 | 2.6 | 4.3 | 0.00 | 0.00 | 0.00 | 81 | 1014.5 |
| 20260506230157 | 49 | 306 | 1.7 | 4.3 | 0.00 | 0.00 | 0.00 | 81 | 1014.4 |
| 20260506225637 | 49 | 300 | 1.7 | 4.3 | 0.00 | 0.00 | 0.00 | 80 | 1014.5 |
| 20260506225157 | 49 | 309 | 2.6 | 6.1 | 0.00 | 0.00 | 0.00 | 80 | 1014.4 |
| 20260506224637 | 49 | 312 | 2.6 | 3.5 | 0.00 | 0.00 | 0.00 | 79 | 1014.4 |
| 20260506224137 | 50 | 296 | 2.6 | 4.3 | 0.00 | 0.00 | 0.00 | 79 | 1014.4 |
| 20260506223737 | 50 | 346 | 1.7 | 6.1 | 0.00 | 0.00 | 0.00 | 78 | 1014.4 |
| 20260506223137 | 50 | 296 | 2.6 | 4.3 | 0.00 | 0.00 | 0.00 | 78 | 1014.3 |
| 20260506222637 | 50 | 313 | 4.3 | 7.0 | 0.00 | 0.00 | 0.00 | 77 | 1014.3 |
| 20260506222138 | 50 | 313 | 1.7 | 5.2 | 0.00 | 0.00 | 0.00 | 76 | 1014.3 |
| 20260506221638 | 50 | 313 | 1.7 | 2.6 | 0.00 | 0.00 | 0.00 | 76 | 1014.3 |
| 20260506221157 | 50 | 322 | 2.6 | 5.2 | 0.00 | 0.00 | 0.00 | 75 | 1014.3 |
| 20260506220637 | 51 | 339 | 2.6 | 6.1 | 0.00 | 0.00 | 0.00 | 75 | 1014.2 |
| 20260506220157 | 51 | 293 | 2.6 | 4.3 | 0.00 | 0.00 | 0.00 | 74 | 1014.2 |
| 20260506215637 | 51 | 326 | 2.6 | 2.6 | 0.00 | 0.00 | 0.00 | 74 | 1014.1 |
| 20260506215137 | 51 | 308 | 3.5 | 5.2 | 0.00 | 0.00 | 0.00 | 73 | 1014.1 |
| 20260506214657 | 51 | 304 | 2.6 | 3.5 | 0.00 | 0.00 | 0.00 | 72 | 1014.1 |
| 20260506214137 | 52 | 332 | 1.7 | 4.3 | 0.00 | 0.00 | 0.00 | 71 | 1014.0 |
| 20260506213637 | 52 | 314 | 2.6 | 7.0 | 0.00 | 0.00 | 0.00 | 71 | 1014.0 |
| 20260506213137 | 52 | 351 | 1.7 | 3.5 | 0.00 | 0.00 | 0.00 | 70 | 1014.0 |
| 20260506212637 | 52 | 312 | 4.3 | 6.1 | 0.00 | 0.00 | 0.00 | 68 | 1013.9 |
| 20260506212137 | 53 | 320 | 4.3 | 6.1 | 0.00 | 0.00 | 0.00 | 67 | 1013.9 |
| 20260506211637 | 53 | 313 | 2.6 | 6.1 | 0.00 | 0.00 | 0.00 | 66 | 1013.9 |
| 20260506211157 | 53 | 318 | 3.5 | 7.0 | 0.00 | 0.00 | 0.00 | 65 | 1013.8 |
| 20260506210637 | 53 | 342 | 3.5 | 6.1 | 0.00 | 0.00 | 0.00 | 64 | 1013.7 |
| 20260506210137 | 53 | 298 | 0.9 | 4.3 | 0.00 | 0.00 | 0.00 | 64 | 1013.7 |
| 20260506205637 | 54 | 275 | 1.7 | 6.1 | 0.00 | 0.00 | 0.00 | 64 | 1013.7 |
| 20260506205137 | 54 | 293 | 2.6 | 7.0 | 0.00 | 0.00 | 0.00 | 64 | 1013.7 |
| 20260506204638 | 54 | 300 | 4.3 | 5.2 | 0.00 | 0.00 | 0.00 | 64 | 1013.6 |
| 20260506204158 | 54 | 313 | 2.6 | 2.6 | 0.00 | 0.00 | 0.00 | 64 | 1013.5 |
| 20260506203637 | 54 | 314 | 3.5 | 3.5 | 0.00 | 0.00 | 0.00 | 64 | 1013.5 |
| 20260506203137 | 54 | 318 | 2.6 | 5.2 | 0.00 | 0.00 | 0.00 | 64 | 1013.5 |
| 20260506202657 | 54 | 325 | 4.3 | 7.0 | 0.00 | 0.00 | 0.00 | 63 | 1013.4 |
| 20260506202137 | 54 | 298 | 5.2 | 7.0 | 0.00 | 0.00 | 0.00 | 64 | 1013.5 |
| 20260506201657 | 54 | 304 | 1.7 | 3.5 | 0.00 | 0.00 | 0.00 | 64 | 1013.4 |
| 20260506201137 | 55 | 297 | 3.5 | 4.3 | 0.00 | 0.00 | 0.00 | 63 | 1013.4 |
| 20260506200637 | 55 | 298 | 3.5 | 6.1 | 0.00 | 0.00 | 0.00 | 64 | 1013.3 |
| 20260506200138 | 55 | 316 | 0.9 | 3.5 | 0.00 | 0.00 | 0.00 | 63 | 1013.3 |
| 20260506195638 | 55 | 296 | 1.7 | 4.3 | 0.00 | 0.00 | 0.00 | 63 | 1013.2 |
| 20260506195137 | 55 | 318 | 5.2 | 7.0 | 0.00 | 0.00 | 0.00 | 63 | 1013.2 |
| 20260506194637 | 55 | 276 | 2.6 | 6.1 | 0.00 | 0.00 | 0.00 | 62 | 1013.2 |
| 20260506194137 | 55 | 187 | 0.0 | 2.6 | 0.00 | 0.00 | 0.00 | 62 | 1013.1 |
| 20260506193637 | 55 | 148 | 0.9 | 0.9 | 0.00 | 0.00 | 0.00 | 61 | 1013.1 |
| 20260506193217 | 56 | 290 | 1.7 | 1.7 | 0.00 | 0.00 | 0.00 | 61 | 1012.9 |
| 20260506192637 | 55 | 305 | 1.7 | 3.5 | 0.00 | 0.00 | 0.00 | 61 | 1012.9 |
| 20260506192137 | 56 | 0.0 | 1.7 | 0.00 | 0.00 | 0.00 | 61 | 1012.9 | |
| 20260506191638 | 55 | 269 | 1.7 | 3.5 | 0.00 | 0.00 | 0.00 | 61 | 1012.9 |
| 20260506191137 | 56 | 292 | 0.9 | 2.6 | 0.00 | 0.00 | 0.00 | 60 | 1012.8 |
| 20260506190640 | 56 | 295 | 1.7 | 6.1 | 0.00 | 0.00 | 0.00 | 60 | 1012.7 |
| 20260506190137 | 56 | 131 | 0.9 | 1.7 | 0.00 | 0.00 | 0.00 | 60 | 1012.6 |
| 20260506185638 | 56 | 105 | 0.9 | 4.3 | 0.00 | 0.00 | 0.00 | 60 | 1012.6 |
| 20260506185158 | 56 | 101 | 2.6 | 4.3 | 0.00 | 0.00 | 0.00 | 59 | 1012.5 |
| 20260506184637 | 56 | 294 | 1.7 | 2.6 | 0.00 | 0.00 | 0.00 | 59 | 1012.4 |
| 20260506184217 | 56 | 295 | 3.5 | 5.2 | 0.00 | 0.00 | 0.00 | 59 | 1012.3 |
| 20260506183637 | 56 | 272 | 1.7 | 5.2 | 0.00 | 0.00 | 0.00 | 58 | 1012.3 |
| 20260506183138 | 56 | 286 | 3.5 | 6.1 | 0.00 | 0.00 | 0.00 | 57 | 1012.2 |
| 20260506182638 | 56 | 296 | 2.6 | 6.1 | 0.00 | 0.00 | 0.00 | 56 | 1012.1 |
| 20260506182137 | 57 | 344 | 1.7 | 4.3 | 0.00 | 0.00 | 0.00 | 55 | 1012.1 |
| 20260506181717 | 57 | 289 | 1.7 | 3.5 | 0.00 | 0.00 | 0.00 | 54 | 1012.0 |
| 20260506181137 | 57 | 323 | 0.9 | 6.1 | 0.00 | 0.00 | 0.00 | 53 | 1012.0 |
| 20260506180627 | 57 | 309 | 0.9 | 1.7 | 0.00 | 0.00 | 0.00 | 52 | 1011.9 |
| 20260506180138 | 57 | 226 | 1.7 | 2.6 | 0.00 | 0.00 | 0.00 | 52 | 1011.9 |
| 20260506175637 | 57 | 314 | 4.3 | 6.1 | 0.00 | 0.00 | 0.00 | 51 | 1011.9 |
| 20260506175158 | 57 | 275 | 1.7 | 4.3 | 0.00 | 0.00 | 0.00 | 51 | 1011.8 |
| 20260506174638 | 57 | 317 | 1.7 | 6.1 | 0.00 | 0.00 | 0.00 | 51 | 1011.7 |
| 20260506174138 | 57 | 105 | 2.6 | 4.3 | 0.00 | 0.00 | 0.00 | 50 | 1011.6 |
| 20260506173637 | 57 | 276 | 1.7 | 5.2 | 0.00 | 0.00 | 0.00 | 50 | 1011.5 |
| 20260506173140 | 57 | 315 | 2.6 | 4.3 | 0.00 | 0.00 | 0.00 | 50 | 1011.5 |
| 20260506172638 | 57 | 354 | 3.5 | 7.8 | 0.00 | 0.00 | 0.00 | 49 | 1011.4 |
| 20260506172138 | 57 | 288 | 0.9 | 4.3 | 0.00 | 0.00 | 0.00 | 48 | 1011.4 |
| 20260506171638 | 57 | 348 | 1.7 | 6.1 | 0.00 | 0.00 | 0.00 | 48 | 1011.4 |
| 20260506171137 | 57 | 280 | 2.6 | 4.3 | 0.00 | 0.00 | 0.00 | 48 | 1011.3 |
| 20260506170658 | 58 | 220 | 0.9 | 0.9 | 0.00 | 0.00 | 0.00 | 47 | 1011.3 |
| 20260506170137 | 58 | 0.0 | 1.7 | 0.00 | 0.00 | 0.00 | 48 | 1011.3 | |
| 20260506165638 | 58 | 340 | 0.0 | 1.7 | 0.00 | 0.00 | 0.00 | 48 | 1011.3 |
| 20260506165217 | 58 | 152 | 0.9 | 2.6 | 0.00 | 0.00 | 0.00 | 50 | 1011.2 |
| 20260506164637 | 58 | 160 | 0.9 | 3.5 | 0.00 | 0.00 | 0.00 | 49 | 1011.2 |
| 20260506164137 | 59 | 143 | 1.7 | 3.5 | 0.00 | 0.00 | 0.00 | 50 | 1011.3 |
| 20260506163638 | 59 | 145 | 0.0 | 1.7 | 0.00 | 0.00 | 0.00 | 48 | 1011.2 |
| 20260506163138 | 59 | 0.0 | 2.6 | 0.00 | 0.00 | 0.00 | 47 | 1011.2 | |
| 20260506162637 | 59 | 73 | 1.7 | 3.5 | 0.00 | 0.00 | 0.00 | 47 | 1011.2 |
| 20260506162137 | 59 | 257 | 0.9 | 2.6 | 0.00 | 0.00 | 0.00 | 47 | 1011.2 |
| 20260506161638 | 60 | 177 | 1.7 | 3.5 | 0.00 | 0.00 | 0.00 | 46 | 1011.2 |
| 20260506161138 | 60 | 286 | 0.9 | 1.7 | 0.00 | 0.00 | 0.00 | 46 | 1011.2 |
| 20260506160638 | 60 | 224 | 0.0 | 1.7 | 0.00 | 0.00 | 0.00 | 46 | 1011.1 |
| 20260506160138 | 60 | 247 | 0.9 | 3.5 | 0.00 | 0.00 | 0.00 | 45 | 1011.1 |
| 20260506155640 | 60 | 112 | 0.9 | 1.7 | 0.00 | 0.00 | 0.00 | 46 | 1011.1 |
| 20260506155137 | 60 | 0.0 | 1.7 | 0.00 | 0.00 | 0.00 | 46 | 1011.2 | |
| 20260506154658 | 59 | 235 | 2.6 | 7.8 | 0.00 | 0.00 | 0.00 | 45 | 1011.1 |
| 20260506154137 | 60 | 197 | 2.6 | 4.3 | 0.00 | 0.00 | 0.00 | 44 | 1011.1 |
| 20260506153638 | 60 | 277 | 3.5 | 5.2 | 0.00 | 0.00 | 0.00 | 44 | 1011.1 |
| 20260506153138 | 60 | 287 | 2.6 | 4.3 | 0.00 | 0.00 | 0.00 | 43 | 1011.0 |
| 20260506152658 | 60 | 252 | 2.6 | 5.2 | 0.00 | 0.00 | 0.00 | 42 | 1011.1 |
| 20260506152138 | 60 | 275 | 3.5 | 6.1 | 0.00 | 0.00 | 0.00 | 42 | 1011.1 |
| 20260506151638 | 60 | 137 | 0.9 | 3.5 | 0.00 | 0.00 | 0.00 | 41 | 1011.0 |
| 20260506151137 | 60 | 293 | 3.5 | 7.0 | 0.00 | 0.00 | 0.00 | 41 | 1011.1 |
| 20260506150638 | 61 | 298 | 2.6 | 6.1 | 0.00 | 0.00 | 0.00 | 40 | 1011.0 |
| 20260506150138 | 60 | 359 | 2.6 | 8.7 | 0.00 | 0.00 | 0.00 | 40 | 1011.0 |
| 20260506145638 | 61 | 291 | 2.6 | 7.0 | 0.00 | 0.00 | 0.00 | 40 | 1011.0 |
| 20260506145137 | 61 | 260 | 3.5 | 5.2 | 0.00 | 0.00 | 0.00 | 39 | 1011.0 |
| 20260506144738 | 62 | 220 | 2.6 | 8.7 | 0.00 | 0.00 | 0.00 | 38 | 1011.0 |
| 20260506144138 | 62 | 294 | 1.7 | 6.1 | 0.00 | 0.00 | 0.00 | 40 | 1011.1 |
| 20260506143718 | 61 | 308 | 4.3 | 12.2 | 0.00 | 0.00 | 0.00 | 40 | 1011.0 |
| 20260506143157 | 62 | 242 | 3.5 | 5.2 | 0.00 | 0.00 | 0.00 | 40 | 1011.0 |
| 20260506142638 | 62 | 180 | 2.6 | 4.3 | 0.00 | 0.00 | 0.00 | 41 | 1011.0 |
| 20260506142141 | 61 | 200 | 3.5 | 5.2 | 0.00 | 0.00 | 0.00 | 41 | 1011.1 |
| 20260506141638 | 61 | 214 | 3.5 | 6.1 | 0.00 | 0.00 | 0.00 | 41 | 1011.0 |
| 20260506141138 | 60 | 163 | 7.0 | 9.6 | 0.00 | 0.00 | 0.00 | 42 | 1011.1 |
| 20260506140658 | 60 | 283 | 2.6 | 4.3 | 0.00 | 0.00 | 0.00 | 42 | 1011.0 |
| 20260506140138 | 61 | 308 | 2.6 | 4.3 | 0.00 | 0.00 | 0.00 | 42 | 1011.1 |
| 20260506135638 | 59 | 352 | 4.3 | 7.8 | 0.00 | 0.00 | 0.00 | 43 | 1010.9 |
| 20260506135138 | 60 | 40 | 1.7 | 8.7 | 0.00 | 0.00 | 0.00 | 43 | 1011.0 |
| 20260506134639 | 61 | 281 | 2.6 | 7.8 | 0.00 | 0.00 | 0.00 | 43 | 1010.9 |
| 20260506134158 | 61 | 293 | 1.7 | 3.5 | 0.00 | 0.00 | 0.00 | 41 | 1010.9 |
| 20260506133638 | 61 | 54 | 2.6 | 4.3 | 0.00 | 0.00 | 0.00 | 41 | 1010.8 |
| 20260506133138 | 62 | 157 | 2.6 | 8.7 | 0.00 | 0.00 | 0.00 | 40 | 1010.9 |
| 20260506132658 | 61 | 95 | 4.3 | 6.1 | 0.00 | 0.00 | 0.00 | 40 | 1010.9 |
| 20260506132138 | 61 | 329 | 2.6 | 7.0 | 0.00 | 0.00 | 0.00 | 42 | 1010.9 |
| 20260506131638 | 62 | 143 | 2.6 | 5.2 | 0.00 | 0.00 | 0.00 | 40 | 1010.8 |
| 20260506131138 | 60 | 312 | 5.2 | 8.7 | 0.00 | 0.00 | 0.00 | 42 | 1010.9 |
| 20260506130638 | 60 | 294 | 4.3 | 10.4 | 0.00 | 0.00 | 0.00 | 44 | 1010.8 |
| 20260506130138 | 61 | 290 | 3.5 | 7.0 | 0.00 | 0.00 | 0.00 | 44 | 1010.8 |
| 20260506125638 | 60 | 119 | 3.5 | 8.7 | 0.00 | 0.00 | 0.00 | 44 | 1010.8 |
| 20260506125159 | 60 | 309 | 5.2 | 6.1 | 0.00 | 0.00 | 0.00 | 44 | 1010.7 |
| 20260506124641 | 61 | 290 | 2.6 | 6.1 | 0.00 | 0.00 | 0.00 | 42 | 1010.7 |
| 20260506124138 | 61 | 274 | 1.7 | 5.2 | 0.00 | 0.00 | 0.00 | 45 | 1010.8 |
| 20260506123639 | 60 | 73 | 1.7 | 6.1 | 0.00 | 0.00 | 0.00 | 49 | 1010.8 |
| 20260506123138 | 59 | 291 | 2.6 | 4.3 | 0.00 | 0.00 | 0.00 | 52 | 1010.8 |
| 20260506122638 | 58 | 302 | 9.6 | 11.3 | 0.00 | 0.00 | 0.00 | 52 | 1010.7 |
| 20260506122138 | 60 | 272 | 4.3 | 7.0 | 0.00 | 0.00 | 0.00 | 48 | 1010.7 |
| 20260506121638 | 60 | 231 | 2.6 | 3.5 | 0.00 | 0.00 | 0.00 | 49 | 1010.6 |
| 20260506121138 | 60 | 348 | 1.7 | 7.8 | 0.00 | 0.00 | 0.00 | 48 | 1010.7 |
| 20260506120638 | 60 | 295 | 5.2 | 7.0 | 0.00 | 0.00 | 0.00 | 48 | 1010.7 |
| 20260506120138 | 59 | 344 | 5.2 | 6.1 | 0.00 | 0.00 | 0.00 | 46 | 1010.5 |
| 20260506115659 | 59 | 299 | 4.3 | 9.6 | 0.00 | 0.00 | 0.00 | 45 | 1010.6 |
| 20260506115138 | 60 | 257 | 1.7 | 3.5 | 0.00 | 0.00 | 0.00 | 46 | 1010.5 |
| 20260506114638 | 59 | 301 | 7.0 | 7.8 | 0.00 | 0.00 | 0.00 | 45 | 1010.5 |
| 20260506114138 | 59 | 323 | 7.0 | 12.2 | 0.00 | 0.00 | 0.00 | 46 | 1010.5 |
| 20260506113638 | 59 | 113 | 5.2 | 5.2 | 0.00 | 0.00 | 0.00 | 53 | 1010.6 |
| 20260506113138 | 59 | 295 | 4.3 | 6.1 | 0.00 | 0.00 | 0.00 | 52 | 1010.6 |
| 20260506112608 | 58 | 267 | 1.7 | 5.2 | 0.00 | 0.00 | 0.00 | 57 | 1010.5 |
| 20260506112038 | 57 | 344 | 4.3 | 7.8 | 0.00 | 0.00 | 0.00 | 61 | 1010.5 |
| 20260506111538 | 57 | 312 | 4.3 | 8.7 | 0.00 | 0.00 | 0.00 | 61 | 1010.6 |
| 20260506111038 | 56 | 313 | 5.2 | 6.1 | 0.00 | 0.00 | 0.00 | 61 | 1010.7 |
| 20260506110538 | 57 | 37 | 3.5 | 8.7 | 0.00 | 0.00 | 0.00 | 62 | 1010.7 |
| 20260506110039 | 57 | 354 | 5.2 | 8.7 | 0.00 | 0.00 | 0.00 | 61 | 1010.7 |
| 20260506105538 | 57 | 337 | 6.1 | 7.0 | 0.00 | 0.00 | 0.00 | 59 | 1010.6 |
| 20260506105038 | 58 | 290 | 0.0 | 3.5 | 0.00 | 0.00 | 0.00 | 57 | 1010.6 |
| 20260506104558 | 58 | 306 | 3.5 | 4.3 | 0.00 | 0.00 | 0.00 | 57 | 1010.6 |
| 20260506104038 | 58 | 190 | 1.7 | 7.8 | 0.00 | 0.00 | 0.00 | 56 | 1010.5 |
| 20260506103528 | 58 | 318 | 2.6 | 6.1 | 0.00 | 0.00 | 0.00 | 55 | 1010.5 |
| 20260506102908 | 58 | 206 | 2.6 | 4.3 | 0.00 | 0.00 | 0.00 | 53 | 1010.5 |
| 20260506102358 | 59 | 315 | 5.2 | 10.4 | 0.00 | 0.00 | 0.00 | 52 | 1010.6 |
| 20260506101838 | 59 | 195 | 2.6 | 7.0 | 0.00 | 0.00 | 0.00 | 51 | 1010.5 |
| 20260506101338 | 58 | 21 | 2.6 | 5.2 | 0.00 | 0.00 | 0.00 | 54 | 1010.5 |
| 20260506100838 | 58 | 16 | 5.2 | 8.7 | 0.00 | 0.00 | 0.00 | 57 | 1010.4 |
| 20260506100338 | 58 | 353 | 1.7 | 7.0 | 0.00 | 0.00 | 0.00 | 60 | 1010.5 |
| 20260506095858 | 59 | 309 | 5.2 | 8.7 | 0.00 | 0.00 | 0.00 | 57 | 1010.5 |
| 20260506095338 | 59 | 306 | 6.1 | 9.6 | 0.00 | 0.00 | 0.00 | 57 | 1010.5 |
| 20260506094858 | 59 | 304 | 6.1 | 6.1 | 0.00 | 0.00 | 0.00 | 58 | 1010.5 |
| 20260506094358 | 59 | 295 | 4.3 | 6.1 | 0.00 | 0.00 | 0.00 | 59 | 1010.4 |
| 20260506093808 | 58 | 147 | 2.6 | 7.0 | 0.00 | 0.00 | 0.00 | 60 | 1010.3 |
| 20260506093208 | 58 | 325 | 6.1 | 7.8 | 0.00 | 0.00 | 0.00 | 62 | 1010.4 |
| 20260506092638 | 57 | 300 | 4.3 | 7.0 | 0.00 | 0.00 | 0.00 | 65 | 1010.4 |
| 20260506092138 | 56 | 310 | 3.5 | 7.8 | 0.00 | 0.00 | 0.00 | 66 | 1010.4 |
| 20260506091658 | 57 | 288 | 5.2 | 7.0 | 0.00 | 0.00 | 0.00 | 65 | 1010.4 |
| 20260506091138 | 57 | 17 | 5.2 | 8.7 | 0.00 | 0.00 | 0.00 | 65 | 1010.3 |
| 20260506090638 | 57 | 319 | 1.7 | 3.5 | 0.00 | 0.00 | 0.00 | 66 | 1010.3 |
| 20260506090158 | 56 | 7 | 5.2 | 8.7 | 0.00 | 0.00 | 0.00 | 67 | 1010.3 |